Powrót do katalogu

STARLINK-35028

AktywnyŁącznośćSSO
NORAD 65381·PAYLOAD·🇺🇸 United States

Wystrzelony Aug 30, 2025 z Vandenberg Space Force Base

Loading…

Następne Przeloty (najbliższe 24 godziny)

TLE

ŚwieżeSource: CelesTrak SupGP

Epoka: Sep 14, 2026, 22:48 UTC

1 65381C 25191C   26257.95048611  .00069028  00000+0  21420-2 0  2579
2 65381  97.2845 124.0264 0001622 101.8568 342.2665 15.33414980    16

Śledź STARLINK-35028 w czasie rzeczywistym z AllMySat

Download on the App Store